�N����,�����b,���ԉ��x,���Ԏ��x,��󒲎�,����,�ݼ�
2004/4/1,0:00:00,20.2 ,36.4 ,18.0 ,11.7 ,18.3 
2004/4/1,0:15:00,20.1 ,36.5 ,18.0 ,11.8 ,18.2 
2004/4/1,0:30:00,20.0 ,36.7 ,17.9 ,11.9 ,18.2 
2004/4/1,0:45:00,20.0 ,36.8 ,17.8 ,11.9 ,18.1 
2004/4/1,1:00:00,19.9 ,37.0 ,17.8 ,12.0 ,18.1 
2004/4/1,1:15:00,19.9 ,36.9 ,17.7 ,12.1 ,18.0 
2004/4/1,1:30:00,19.9 ,37.3 ,17.6 ,12.2 ,18.0 
2004/4/1,1:45:00,19.8 ,37.1 ,17.6 ,12.3 ,18.0 
2004/4/1,2:00:00,19.8 ,37.1 ,17.5 ,12.4 ,17.9 
2004/4/1,2:15:00,19.8 ,37.0 ,17.5 ,12.5 ,17.9 
2004/4/1,2:30:00,19.8 ,37.1 ,17.4 ,12.6 ,17.9 
2004/4/1,2:45:00,19.7 ,37.2 ,17.4 ,12.7 ,17.9 
2004/4/1,3:00:00,19.8 ,37.1 ,17.4 ,12.7 ,17.8 
2004/4/1,3:15:00,19.7 ,37.2 ,17.3 ,12.8 ,17.8 
2004/4/1,3:30:00,19.7 ,37.0 ,17.3 ,12.9 ,17.8 
2004/4/1,3:45:00,19.8 ,36.8 ,17.2 ,13.0 ,17.7 
2004/4/1,4:00:00,19.7 ,37.2 ,17.2 ,13.1 ,17.7 
2004/4/1,4:15:00,19.7 ,37.0 ,17.1 ,13.1 ,17.7 
2004/4/1,4:30:00,19.7 ,37.2 ,17.1 ,13.2 ,17.6 
2004/4/1,4:45:00,19.8 ,36.8 ,17.0 ,13.3 ,17.7 
2004/4/1,5:00:00,19.7 ,36.8 ,17.0 ,13.3 ,17.6 
2004/4/1,5:15:00,19.7 ,36.7 ,17.0 ,13.4 ,17.6 
2004/4/1,5:30:00,19.6 ,36.8 ,16.9 ,13.5 ,17.5 
2004/4/1,5:45:00,19.7 ,36.4 ,16.9 ,13.5 ,17.5 
2004/4/1,6:00:00,19.6 ,36.4 ,16.8 ,13.6 ,17.5 
2004/4/1,6:15:00,19.6 ,36.4 ,16.8 ,13.7 ,17.5 
2004/4/1,6:30:00,19.6 ,36.5 ,16.8 ,13.8 ,17.5 
2004/4/1,6:45:00,19.6 ,37.4 ,16.8 ,11.7 ,17.6 
2004/4/1,7:00:00,19.7 ,37.8 ,16.8 ,11.8 ,17.7 
2004/4/1,7:15:00,19.7 ,37.8 ,17.0 ,11.9 ,17.8 
2004/4/1,7:30:00,19.8 ,37.6 ,17.2 ,12.0 ,17.9 
2004/4/1,7:45:00,19.8 ,37.3 ,17.7 ,12.3 ,18.1 
2004/4/1,8:00:00,19.9 ,36.1 ,17.9 ,12.4 ,18.2 
2004/4/1,8:15:00,20.0 ,36.1 ,18.2 ,12.4 ,18.4 
2004/4/1,8:30:00,20.1 ,36.2 ,18.4 ,12.5 ,18.5 
2004/4/1,8:45:00,20.1 ,35.7 ,18.5 ,12.6 ,18.7 
2004/4/1,9:00:00,20.0 ,36.1 ,18.6 ,12.7 ,18.8 
2004/4/1,9:15:00,20.0 ,35.3 ,18.8 ,12.7 ,19.0 
2004/4/1,9:30:00,20.0 ,34.8 ,18.9 ,12.8 ,19.1 
2004/4/1,9:45:00,20.1 ,34.1 ,19.1 ,12.0 ,19.1 
2004/4/1,10:00:00,20.1 ,34.2 ,19.2 ,12.1 ,19.2 
2004/4/1,10:15:00,19.8 ,34.3 ,19.3 ,12.2 ,19.1 
2004/4/1,10:30:00,20.0 ,35.3 ,19.4 ,12.3 ,20.4 
2004/4/1,10:45:00,19.7 ,36.9 ,19.4 ,12.3 ,20.2 
2004/4/1,11:00:00,19.6 ,37.6 ,19.5 ,12.4 ,19.9 
2004/4/1,11:15:00,19.5 ,37.4 ,19.6 ,12.5 ,19.7 
2004/4/1,11:30:00,19.5 ,37.1 ,19.6 ,12.6 ,19.5 
2004/4/1,11:45:00,19.4 ,37.6 ,19.6 ,12.7 ,19.4 
2004/4/1,12:00:00,19.4 ,37.5 ,19.6 ,12.8 ,19.4 
2004/4/1,12:15:00,19.3 ,33.0 ,19.6 ,12.8 ,19.3 
2004/4/1,12:30:00,19.2 ,35.5 ,19.6 ,11.8 ,19.3 
2004/4/1,12:45:00,19.2 ,35.3 ,19.6 ,11.9 ,19.3 
2004/4/1,13:00:00,19.2 ,35.3 ,19.6 ,12.1 ,19.3 
2004/4/1,13:15:00,19.1 ,35.4 ,19.6 ,11.5 ,19.2 
2004/4/1,13:30:00,19.1 ,34.3 ,19.5 ,11.5 ,19.1 
2004/4/1,13:45:00,19.0 ,34.1 ,19.5 ,11.7 ,19.1 
2004/4/1,14:00:00,18.9 ,34.0 ,19.4 ,11.8 ,19.0 
2004/4/1,14:15:00,18.9 ,34.7 ,19.4 ,11.8 ,18.9 
2004/4/1,14:30:00,18.9 ,33.7 ,19.3 ,11.9 ,18.9 
2004/4/1,14:45:00,18.8 ,33.5 ,19.2 ,12.0 ,18.8 
2004/4/1,15:00:00,18.8 ,33.7 ,19.2 ,12.1 ,18.8 
2004/4/1,15:15:00,18.7 ,32.7 ,19.1 ,12.2 ,18.7 
2004/4/1,15:30:00,18.7 ,33.4 ,19.1 ,12.3 ,18.7 
2004/4/1,15:45:00,18.7 ,33.9 ,19.0 ,12.4 ,18.7 
2004/4/1,16:00:00,18.7 ,33.3 ,18.9 ,12.5 ,18.6 
2004/4/1,16:15:00,18.6 ,33.8 ,18.9 ,12.6 ,18.6 
2004/4/1,16:30:00,18.6 ,33.8 ,18.8 ,12.7 ,18.5 
2004/4/1,16:45:00,18.5 ,34.1 ,18.7 ,12.8 ,18.4 
2004/4/1,17:00:00,18.5 ,33.9 ,18.6 ,12.8 ,18.4 
2004/4/1,17:15:00,18.5 ,34.5 ,18.6 ,12.9 ,18.3 
2004/4/1,17:30:00,18.5 ,33.9 ,18.5 ,13.0 ,18.3 
2004/4/1,17:45:00,19.0 ,32.9 ,18.4 ,13.1 ,18.2 
2004/4/1,18:00:00,19.4 ,32.8 ,18.3 ,13.2 ,18.4 
2004/4/1,18:15:00,19.4 ,33.2 ,18.2 ,13.2 ,18.5 
2004/4/1,18:30:00,19.9 ,33.6 ,18.2 ,13.3 ,18.5 
2004/4/1,18:45:00,20.6 ,33.5 ,18.2 ,13.4 ,24.5 
2004/4/1,19:00:00,20.7 ,34.6 ,18.3 ,13.4 ,25.6 
2004/4/1,19:15:00,20.8 ,34.1 ,18.3 ,13.5 ,23.3 
2004/4/1,19:30:00,21.1 ,34.9 ,18.2 ,12.4 ,22.1 
2004/4/1,19:45:00,21.2 ,34.5 ,18.2 ,12.5 ,21.2 
2004/4/1,20:00:00,21.3 ,35.0 ,18.1 ,12.6 ,20.6 
2004/4/1,20:15:00,21.4 ,35.0 ,18.1 ,11.7 ,20.2 
2004/4/1,20:30:00,21.5 ,35.7 ,18.1 ,11.8 ,20.0 
2004/4/1,20:45:00,21.6 ,35.4 ,18.1 ,11.9 ,20.3 
2004/4/1,21:00:00,21.5 ,35.5 ,18.1 ,12.0 ,19.9 
2004/4/1,21:15:00,21.6 ,35.6 ,18.2 ,12.0 ,19.9 
2004/4/1,21:30:00,21.6 ,35.2 ,18.4 ,12.2 ,19.8 
2004/4/1,21:45:00,21.6 ,35.2 ,18.5 ,12.2 ,19.7 
2004/4/1,22:00:00,21.7 ,36.6 ,18.9 ,12.3 ,19.6 
2004/4/1,22:15:00,21.7 ,35.8 ,18.7 ,12.4 ,19.6 
2004/4/1,22:30:00,21.3 ,35.5 ,18.6 ,12.5 ,19.5 
2004/4/1,22:45:00,20.8 ,35.8 ,18.4 ,12.6 ,19.3 
2004/4/1,23:00:00,20.6 ,35.9 ,18.3 ,12.7 ,19.1 
2004/4/1,23:15:00,20.3 ,36.1 ,18.3 ,12.8 ,18.9 
2004/4/1,23:30:00,20.5 ,35.6 ,18.2 ,12.9 ,18.9 
2004/4/1,23:45:00,20.5 ,35.6 ,18.1 ,13.0 ,18.8 
2004/4/2,0:00:00,20.3 ,35.6 ,18.1 ,13.1 ,18.8 
2004/4/2,0:15:00,20.4 ,34.7 ,18.3 ,11.3 ,18.7 
2004/4/2,0:30:00,20.1 ,35.1 ,18.2 ,11.4 ,18.6 
2004/4/2,0:45:00,20.2 ,34.6 ,18.1 ,11.5 ,18.6 
2004/4/2,1:00:00,19.9 ,35.0 ,18.0 ,11.6 ,18.5 
2004/4/2,1:15:00,20.0 ,34.5 ,17.9 ,11.7 ,18.4 
2004/4/2,1:30:00,20.2 ,34.3 ,17.9 ,11.8 ,18.4 
2004/4/2,1:45:00,20.1 ,34.2 ,17.8 ,11.9 ,18.4 
2004/4/2,2:00:00,20.1 ,34.2 ,17.8 ,12.0 ,18.4 
2004/4/2,2:15:00,20.0 ,34.4 ,17.7 ,12.1 ,18.4 
2004/4/2,2:30:00,20.0 ,34.4 ,17.7 ,12.2 ,18.3 
2004/4/2,2:45:00,20.0 ,34.4 ,17.6 ,12.3 ,18.3 
2004/4/2,3:00:00,20.0 ,34.5 ,17.6 ,12.4 ,18.2 
2004/4/2,3:15:00,20.0 ,34.5 ,17.6 ,12.5 ,18.3 
2004/4/2,3:30:00,19.9 ,34.5 ,17.5 ,12.6 ,18.2 
2004/4/2,3:45:00,19.9 ,34.6 ,17.5 ,12.7 ,18.2 
2004/4/2,4:00:00,19.9 ,34.5 ,17.5 ,12.8 ,18.2 
2004/4/2,4:15:00,19.9 ,34.8 ,17.4 ,12.9 ,18.1 
2004/4/2,4:30:00,19.8 ,34.9 ,17.4 ,13.0 ,18.0 
2004/4/2,4:45:00,19.8 ,34.8 ,17.4 ,13.1 ,18.0 
2004/4/2,5:00:00,19.9 ,34.9 ,17.3 ,13.1 ,18.0 
2004/4/2,5:15:00,19.8 ,35.3 ,17.3 ,13.2 ,18.0 
2004/4/2,5:30:00,19.8 ,35.2 ,17.3 ,13.3 ,17.9 
2004/4/2,5:45:00,19.8 ,35.4 ,17.3 ,13.4 ,18.0 
2004/4/2,6:00:00,19.8 ,35.5 ,17.2 ,13.5 ,18.0 
2004/4/2,6:15:00,19.8 ,35.7 ,17.2 ,13.5 ,17.9 
2004/4/2,6:30:00,19.8 ,35.8 ,17.2 ,13.6 ,17.9 
2004/4/2,6:45:00,20.0 ,35.9 ,17.2 ,12.1 ,17.9 
2004/4/2,7:00:00,20.2 ,35.9 ,17.1 ,12.2 ,18.1 
2004/4/2,7:15:00,20.3 ,36.0 ,17.1 ,11.5 ,18.2 
2004/4/2,7:30:00,20.5 ,36.3 ,17.1 ,11.6 ,21.0 
2004/4/2,7:45:00,20.6 ,36.3 ,17.1 ,11.7 ,20.3 
2004/4/2,8:00:00,21.0 ,35.4 ,17.1 ,11.7 ,19.6 
2004/4/2,8:15:00,21.1 ,35.5 ,17.2 ,11.8 ,19.3 
2004/4/2,8:30:00,21.2 ,35.7 ,17.2 ,11.9 ,19.2 
2004/4/2,8:45:00,21.3 ,35.7 ,17.2 ,12.0 ,19.1 
2004/4/2,9:00:00,21.0 ,36.4 ,17.2 ,12.1 ,19.1 
2004/4/2,9:15:00,21.5 ,35.7 ,17.3 ,12.2 ,19.1 
2004/4/2,9:30:00,21.6 ,35.8 ,17.3 ,12.3 ,19.2 
2004/4/2,9:45:00,21.8 ,35.7 ,17.3 ,12.4 ,19.3 
2004/4/2,10:00:00,22.1 ,35.1 ,17.3 ,12.5 ,19.4 
2004/4/2,10:15:00,22.2 ,34.9 ,17.5 ,12.6 ,19.6 
2004/4/2,10:30:00,22.2 ,35.1 ,17.6 ,12.7 ,19.8 
2004/4/2,10:45:00,22.2 ,35.2 ,17.6 ,12.8 ,19.8 
2004/4/2,11:00:00,22.4 ,35.4 ,17.6 ,12.9 ,19.8 
2004/4/2,11:15:00,22.4 ,35.3 ,17.6 ,13.0 ,21.6 
2004/4/2,11:30:00,22.5 ,35.3 ,17.6 ,13.1 ,21.3 
2004/4/2,11:45:00,22.6 ,35.5 ,17.7 ,13.1 ,21.8 
2004/4/2,12:00:00,22.6 ,35.8 ,17.7 ,13.2 ,23.4 
2004/4/2,12:15:00,22.7 ,35.6 ,17.7 ,13.3 ,22.4 
2004/4/2,12:30:00,22.8 ,35.5 ,17.7 ,13.4 ,22.0 
2004/4/2,12:45:00,22.7 ,36.0 ,17.7 ,13.5 ,21.8 
2004/4/2,13:00:00,22.7 ,36.8 ,17.8 ,13.6 ,22.0 
2004/4/2,13:15:00,22.8 ,36.8 ,17.9 ,13.7 ,22.0 
2004/4/2,13:30:00,22.8 ,37.1 ,17.9 ,13.7 ,21.9 
2004/4/2,13:45:00,23.0 ,36.7 ,17.9 ,13.8 ,21.7 
2004/4/2,14:00:00,22.8 ,37.6 ,18.0 ,13.9 ,21.7 
2004/4/2,14:15:00,22.9 ,37.6 ,18.1 ,14.0 ,21.5 
2004/4/2,14:30:00,22.7 ,37.7 ,18.2 ,14.1 ,21.3 
2004/4/2,14:45:00,22.8 ,36.9 ,18.2 ,14.1 ,21.1 
2004/4/2,15:00:00,22.8 ,36.6 ,18.3 ,14.2 ,21.0 
2004/4/2,15:15:00,22.9 ,35.9 ,18.3 ,14.3 ,20.9 
2004/4/2,15:30:00,22.9 ,35.9 ,18.4 ,14.4 ,20.9 
2004/4/2,15:45:00,22.9 ,35.9 ,18.4 ,14.4 ,20.9 
2004/4/2,16:00:00,22.9 ,35.8 ,18.4 ,14.5 ,20.9 
2004/4/2,16:15:00,22.7 ,34.1 ,18.5 ,14.6 ,20.9 
2004/4/2,16:30:00,21.7 ,35.5 ,18.5 ,14.7 ,20.5 
2004/4/2,16:45:00,21.4 ,38.0 ,18.5 ,14.7 ,20.3 
2004/4/2,17:00:00,21.4 ,39.1 ,18.5 ,14.8 ,20.3 
2004/4/2,17:15:00,21.4 ,39.6 ,18.5 ,14.9 ,23.6 
2004/4/2,17:30:00,21.5 ,40.1 ,18.5 ,14.9 ,22.9 
2004/4/2,17:45:00,21.6 ,40.1 ,18.6 ,15.0 ,21.8 
2004/4/2,18:00:00,21.5 ,39.3 ,18.6 ,12.1 ,21.2 
2004/4/2,18:15:00,21.4 ,38.8 ,18.6 ,12.2 ,20.7 
2004/4/2,18:30:00,21.3 ,38.4 ,18.6 ,11.7 ,20.7 
2004/4/2,18:45:00,21.1 ,38.5 ,18.6 ,11.8 ,20.3 
2004/4/2,19:00:00,21.0 ,38.5 ,18.6 ,11.9 ,20.1 
2004/4/2,19:15:00,20.8 ,38.6 ,18.6 ,12.0 ,19.8 
2004/4/2,19:30:00,20.7 ,38.8 ,18.6 ,12.1 ,19.6 
2004/4/2,19:45:00,20.6 ,38.8 ,18.6 ,12.2 ,19.5 
2004/4/2,20:00:00,21.7 ,36.4 ,18.5 ,12.3 ,21.5 
2004/4/2,20:15:00,22.1 ,37.1 ,19.0 ,12.4 ,26.0 
2004/4/2,20:30:00,22.2 ,37.5 ,19.0 ,12.5 ,23.9 
2004/4/2,20:45:00,22.2 ,37.3 ,19.0 ,12.6 ,22.2 
2004/4/2,21:00:00,22.2 ,37.7 ,19.0 ,12.7 ,21.3 
2004/4/2,21:15:00,22.4 ,37.2 ,19.0 ,12.8 ,20.9 
2004/4/2,21:30:00,22.4 ,38.3 ,19.0 ,12.9 ,20.7 
2004/4/2,21:45:00,22.5 ,37.4 ,18.9 ,13.0 ,20.5 
2004/4/2,22:00:00,22.5 ,36.6 ,18.8 ,12.0 ,20.4 
2004/4/2,22:15:00,22.5 ,36.0 ,18.7 ,12.2 ,20.3 
2004/4/2,22:30:00,22.5 ,36.0 ,18.6 ,12.3 ,20.2 
2004/4/2,22:45:00,22.5 ,35.8 ,18.6 ,12.3 ,20.2 
2004/4/2,23:00:00,22.5 ,35.7 ,18.5 ,12.4 ,20.1 
2004/4/2,23:15:00,22.5 ,35.5 ,18.5 ,12.5 ,20.1 
2004/4/2,23:30:00,22.6 ,35.2 ,18.4 ,12.6 ,20.0 
2004/4/2,23:45:00,22.6 ,35.0 ,18.4 ,12.7 ,20.0 
2004/4/3,0:00:00,22.5 ,35.1 ,18.3 ,12.8 ,20.0 
2004/4/3,0:15:00,22.5 ,34.9 ,18.3 ,12.9 ,20.0 
2004/4/3,0:30:00,22.5 ,34.6 ,18.3 ,13.0 ,19.9 
2004/4/3,0:45:00,22.4 ,34.6 ,18.2 ,13.1 ,19.9 
2004/4/3,1:00:00,22.2 ,35.1 ,18.3 ,12.0 ,19.9 
2004/4/3,1:15:00,21.5 ,35.5 ,18.4 ,11.8 ,19.7 
2004/4/3,1:30:00,21.2 ,36.0 ,18.3 ,11.9 ,19.5 
2004/4/3,1:45:00,20.9 ,36.2 ,18.2 ,11.9 ,19.3 
2004/4/3,2:00:00,20.7 ,36.5 ,18.2 ,12.0 ,19.2 
2004/4/3,2:15:00,20.5 ,36.6 ,18.1 ,12.1 ,19.1 
2004/4/3,2:30:00,20.4 ,36.7 ,18.1 ,12.2 ,19.0 
2004/4/3,2:45:00,20.3 ,36.7 ,18.0 ,12.3 ,18.9 
2004/4/3,3:00:00,20.2 ,36.7 ,18.0 ,12.4 ,18.9 
2004/4/3,3:15:00,20.3 ,36.2 ,17.9 ,12.5 ,18.9 
2004/4/3,3:30:00,20.4 ,35.8 ,17.9 ,12.6 ,18.9 
2004/4/3,3:45:00,20.2 ,35.8 ,17.9 ,12.7 ,18.9 
2004/4/3,4:00:00,20.4 ,35.5 ,17.8 ,12.8 ,18.8 
2004/4/3,4:15:00,20.3 ,35.5 ,17.8 ,12.8 ,18.8 
2004/4/3,4:30:00,20.2 ,35.5 ,17.8 ,12.9 ,18.8 
2004/4/3,4:45:00,20.1 ,35.5 ,17.8 ,13.0 ,18.7 
2004/4/3,5:00:00,20.3 ,35.2 ,17.7 ,13.1 ,18.7 
2004/4/3,5:15:00,20.0 ,35.8 ,17.7 ,13.2 ,18.6 
2004/4/3,5:30:00,20.2 ,35.3 ,17.7 ,13.3 ,18.6 
2004/4/3,5:45:00,20.2 ,35.3 ,17.7 ,13.3 ,18.6 
2004/4/3,6:00:00,20.3 ,35.3 ,17.6 ,13.4 ,18.6 
2004/4/3,6:15:00,20.3 ,35.2 ,17.6 ,13.5 ,18.6 
2004/4/3,6:30:00,20.3 ,35.3 ,17.6 ,13.5 ,18.6 
2004/4/3,6:45:00,20.3 ,35.4 ,17.6 ,13.6 ,18.6 
2004/4/3,7:00:00,20.3 ,35.5 ,17.6 ,13.7 ,18.6 
2004/4/3,7:15:00,20.4 ,36.1 ,17.6 ,13.8 ,18.6 
2004/4/3,7:30:00,20.1 ,36.3 ,17.6 ,13.8 ,18.5 
2004/4/3,7:45:00,20.1 ,36.7 ,17.6 ,12.2 ,18.4 
2004/4/3,8:00:00,20.1 ,37.2 ,17.6 ,12.2 ,18.5 
2004/4/3,8:15:00,20.4 ,36.5 ,17.6 ,12.3 ,18.6 
2004/4/3,8:30:00,20.0 ,37.2 ,17.8 ,12.4 ,18.5 
2004/4/3,8:45:00,20.3 ,37.2 ,18.0 ,11.5 ,18.5 
2004/4/3,9:00:00,20.4 ,36.5 ,18.2 ,11.6 ,18.6 
2004/4/3,9:15:00,20.1 ,36.7 ,18.1 ,11.7 ,18.6 
2004/4/3,9:30:00,20.2 ,36.0 ,18.1 ,11.8 ,18.6 
2004/4/3,9:45:00,20.0 ,36.2 ,18.1 ,11.9 ,18.6 
2004/4/3,10:00:00,20.2 ,35.8 ,18.2 ,11.9 ,18.7 
2004/4/3,10:15:00,20.0 ,35.8 ,18.1 ,12.0 ,18.7 
2004/4/3,10:30:00,20.3 ,35.1 ,18.1 ,12.1 ,18.8 
2004/4/3,10:45:00,20.1 ,35.6 ,18.1 ,12.2 ,18.8 
2004/4/3,11:00:00,20.2 ,35.6 ,18.2 ,12.3 ,18.8 
2004/4/3,11:15:00,20.1 ,35.9 ,18.4 ,12.4 ,18.9 
2004/4/3,11:30:00,20.3 ,35.4 ,18.4 ,12.5 ,18.9 
2004/4/3,11:45:00,20.3 ,35.4 ,18.5 ,12.6 ,19.0 
2004/4/3,12:00:00,20.3 ,35.3 ,18.6 ,12.7 ,19.1 
2004/4/3,12:15:00,20.3 ,35.3 ,18.6 ,12.8 ,19.1 
2004/4/3,12:30:00,20.2 ,35.3 ,18.5 ,12.8 ,19.1 
2004/4/3,12:45:00,20.2 ,35.3 ,18.6 ,12.9 ,19.1 
2004/4/3,13:00:00,20.2 ,35.2 ,18.5 ,13.0 ,19.1 
2004/4/3,13:15:00,20.3 ,34.9 ,18.5 ,13.1 ,19.1 
2004/4/3,13:30:00,20.4 ,34.6 ,18.4 ,13.2 ,19.1 
2004/4/3,13:45:00,20.3 ,34.5 ,18.4 ,13.3 ,19.0 
2004/4/3,14:00:00,20.3 ,34.5 ,18.3 ,13.4 ,19.0 
2004/4/3,14:15:00,20.2 ,34.6 ,18.3 ,13.4 ,19.0 
2004/4/3,14:30:00,20.5 ,33.7 ,18.2 ,12.3 ,18.9 
2004/4/3,14:45:00,21.1 ,33.7 ,18.2 ,12.2 ,20.8 
2004/4/3,15:00:00,21.4 ,33.4 ,18.2 ,12.2 ,20.5 
2004/4/3,15:15:00,21.4 ,33.0 ,18.2 ,12.3 ,20.1 
2004/4/3,15:30:00,21.5 ,33.0 ,18.1 ,12.4 ,19.8 
2004/4/3,15:45:00,21.7 ,32.9 ,18.0 ,12.5 ,19.7 
2004/4/3,16:00:00,21.8 ,32.8 ,18.0 ,12.6 ,19.6 
2004/4/3,16:15:00,21.9 ,32.8 ,18.0 ,11.8 ,19.5 
2004/4/3,16:30:00,21.9 ,32.7 ,17.9 ,11.8 ,19.5 
2004/4/3,16:45:00,22.0 ,32.5 ,17.9 ,11.8 ,19.4 
2004/4/3,17:00:00,22.1 ,32.5 ,18.0 ,11.9 ,19.4 
2004/4/3,17:15:00,22.2 ,32.4 ,17.9 ,12.0 ,19.3 
2004/4/3,17:30:00,22.3 ,32.6 ,17.9 ,12.2 ,19.3 
2004/4/3,17:45:00,22.3 ,32.6 ,17.9 ,11.9 ,19.4 
2004/4/3,18:00:00,22.3 ,32.7 ,17.9 ,11.6 ,19.3 
2004/4/3,18:15:00,22.3 ,32.8 ,17.9 ,11.7 ,24.9 
2004/4/3,18:30:00,22.3 ,33.8 ,17.9 ,11.8 ,28.4 
2004/4/3,18:45:00,22.3 ,34.4 ,17.8 ,11.9 ,26.5 
2004/4/3,19:00:00,22.3 ,33.9 ,17.8 ,12.0 ,23.6 
2004/4/3,19:15:00,22.3 ,34.7 ,17.9 ,12.1 ,22.3 
2004/4/3,19:30:00,22.3 ,35.5 ,17.9 ,12.0 ,22.4 
2004/4/3,19:45:00,22.4 ,36.4 ,17.9 ,12.1 ,21.7 
2004/4/3,20:00:00,22.4 ,36.5 ,17.9 ,12.1 ,20.9 
2004/4/3,20:15:00,22.4 ,36.3 ,17.9 ,12.2 ,20.3 
2004/4/3,20:30:00,22.3 ,35.9 ,17.8 ,11.3 ,21.5 
2004/4/3,20:45:00,22.2 ,36.5 ,17.8 ,11.3 ,21.4 
2004/4/3,21:00:00,22.3 ,36.8 ,17.8 ,11.4 ,21.0 
2004/4/3,21:15:00,22.3 ,37.6 ,17.8 ,11.5 ,20.5 
2004/4/3,21:30:00,22.4 ,37.4 ,18.0 ,11.7 ,20.1 
2004/4/3,21:45:00,22.6 ,37.5 ,18.0 ,11.8 ,20.0 
2004/4/3,22:00:00,22.4 ,38.0 ,17.9 ,11.8 ,19.8 
2004/4/3,22:15:00,22.5 ,37.4 ,17.8 ,11.4 ,19.7 
2004/4/3,22:30:00,22.4 ,37.4 ,17.7 ,11.5 ,19.6 
2004/4/3,22:45:00,22.5 ,36.7 ,17.7 ,11.6 ,19.6 
2004/4/3,23:00:00,22.4 ,36.5 ,17.6 ,11.7 ,19.5 
2004/4/3,23:15:00,22.4 ,36.3 ,17.6 ,11.8 ,19.5 
2004/4/3,23:30:00,22.4 ,36.3 ,17.6 ,11.9 ,19.5 
2004/4/3,23:45:00,22.3 ,35.8 ,17.5 ,12.0 ,19.4 
2004/4/4,0:00:00,22.4 ,35.6 ,17.5 ,12.1 ,19.3 
2004/4/4,0:15:00,22.4 ,35.6 ,17.4 ,12.2 ,19.3 
2004/4/4,0:30:00,22.4 ,35.3 ,17.4 ,12.3 ,19.3 
2004/4/4,0:45:00,22.4 ,35.0 ,17.4 ,12.4 ,19.2 
2004/4/4,1:00:00,22.4 ,34.7 ,17.4 ,12.5 ,19.2 
2004/4/4,1:15:00,22.3 ,34.9 ,17.3 ,12.6 ,19.2 
2004/4/4,1:30:00,22.4 ,34.6 ,17.3 ,12.7 ,19.2 
2004/4/4,1:45:00,22.4 ,34.5 ,17.3 ,12.8 ,19.1 
2004/4/4,2:00:00,22.3 ,34.4 ,17.2 ,12.8 ,19.2 
2004/4/4,2:15:00,22.4 ,34.2 ,17.2 ,12.9 ,19.2 
2004/4/4,2:30:00,22.3 ,34.3 ,17.2 ,13.0 ,19.2 
2004/4/4,2:45:00,22.3 ,34.0 ,17.2 ,13.1 ,19.2 
2004/4/4,3:00:00,22.3 ,33.9 ,17.1 ,13.2 ,19.1 
2004/4/4,3:15:00,22.3 ,33.8 ,17.1 ,13.3 ,19.1 
2004/4/4,3:30:00,21.7 ,35.1 ,17.1 ,13.1 ,19.1 
2004/4/4,3:45:00,21.2 ,35.8 ,17.1 ,11.5 ,18.8 
2004/4/4,4:00:00,20.8 ,36.0 ,17.0 ,11.6 ,18.6 
2004/4/4,4:15:00,20.8 ,35.9 ,17.0 ,11.7 ,18.5 
2004/4/4,4:30:00,20.4 ,36.3 ,17.0 ,11.8 ,18.3 
2004/4/4,4:45:00,20.5 ,36.2 ,17.2 ,11.1 ,18.3 
2004/4/4,5:00:00,20.3 ,36.3 ,17.2 ,11.3 ,18.2 
2004/4/4,5:15:00,20.4 ,35.8 ,17.1 ,11.3 ,18.1 
2004/4/4,5:30:00,20.1 ,36.2 ,17.0 ,11.4 ,18.1 
2004/4/4,5:45:00,20.3 ,35.7 ,16.9 ,11.5 ,18.0 
2004/4/4,6:00:00,20.3 ,35.7 ,16.9 ,11.6 ,18.0 
2004/4/4,6:15:00,20.2 ,36.1 ,16.9 ,11.7 ,18.0 
2004/4/4,6:30:00,20.3 ,35.7 ,16.8 ,10.9 ,18.0 
2004/4/4,6:45:00,20.4 ,35.7 ,16.8 ,11.1 ,18.0 
2004/4/4,7:00:00,20.3 ,36.4 ,16.8 ,11.2 ,18.0 
2004/4/4,7:15:00,20.4 ,36.3 ,16.8 ,11.3 ,18.1 
2004/4/4,7:30:00,20.2 ,36.8 ,16.7 ,10.9 ,18.1 
2004/4/4,7:45:00,21.0 ,35.3 ,16.8 ,11.0 ,18.2 
2004/4/4,8:00:00,21.1 ,35.1 ,16.7 ,11.1 ,18.3 
2004/4/4,8:15:00,21.3 ,34.8 ,16.7 ,11.2 ,18.3 
2004/4/4,8:30:00,21.5 ,34.7 ,16.7 ,11.3 ,18.4 
2004/4/4,8:45:00,21.9 ,34.4 ,16.7 ,11.4 ,19.0 
2004/4/4,9:00:00,21.9 ,34.4 ,16.8 ,11.5 ,19.1 
2004/4/4,9:15:00,22.0 ,34.5 ,16.8 ,10.9 ,19.1 
2004/4/4,9:30:00,22.0 ,33.7 ,17.3 ,11.0 ,19.0 
2004/4/4,9:45:00,22.0 ,32.8 ,17.2 ,10.9 ,19.0 
2004/4/4,10:00:00,22.1 ,32.6 ,17.1 ,11.0 ,19.1 
2004/4/4,10:15:00,22.1 ,32.6 ,17.1 ,11.1 ,19.1 
2004/4/4,10:30:00,22.1 ,32.4 ,17.1 ,11.2 ,19.2 
2004/4/4,10:45:00,22.1 ,32.3 ,17.0 ,11.3 ,19.1 
2004/4/4,11:00:00,22.1 ,32.3 ,17.0 ,11.4 ,19.1 
2004/4/4,11:15:00,22.1 ,32.4 ,17.0 ,11.5 ,19.2 
2004/4/4,11:30:00,22.1 ,32.2 ,17.0 ,11.6 ,19.2 
2004/4/4,11:45:00,22.2 ,32.1 ,17.0 ,11.7 ,19.2 
2004/4/4,12:00:00,22.2 ,32.2 ,17.0 ,11.8 ,19.2 
2004/4/4,12:15:00,22.2 ,32.1 ,17.0 ,11.9 ,19.3 
2004/4/4,12:30:00,22.3 ,31.9 ,17.0 ,12.0 ,19.3 
2004/4/4,12:45:00,22.3 ,31.9 ,17.1 ,12.1 ,19.3 
2004/4/4,13:00:00,22.3 ,31.9 ,17.1 ,12.2 ,19.3 
2004/4/4,13:15:00,22.0 ,32.3 ,17.1 ,12.3 ,20.8 
2004/4/4,13:30:00,22.2 ,32.9 ,17.0 ,12.4 ,22.9 
2004/4/4,13:45:00,22.0 ,34.9 ,17.0 ,12.5 ,20.7 
2004/4/4,14:00:00,22.1 ,33.3 ,17.0 ,12.6 ,20.1 
2004/4/4,14:15:00,21.7 ,33.8 ,17.0 ,11.6 ,19.7 
2004/4/4,14:30:00,21.7 ,33.5 ,16.9 ,11.6 ,19.6 
2004/4/4,14:45:00,21.4 ,34.4 ,16.9 ,11.7 ,19.4 
2004/4/4,15:00:00,21.6 ,33.1 ,16.9 ,11.8 ,19.4 
2004/4/4,15:15:00,21.5 ,33.3 ,16.8 ,11.9 ,19.4 
2004/4/4,15:30:00,21.2 ,33.8 ,16.8 ,12.0 ,19.3 
2004/4/4,15:45:00,21.3 ,33.4 ,16.8 ,12.1 ,19.3 
2004/4/4,16:00:00,21.7 ,32.5 ,16.8 ,12.2 ,20.8 
2004/4/4,16:15:00,22.0 ,32.5 ,17.2 ,11.4 ,22.5 
2004/4/4,16:30:00,22.1 ,32.9 ,17.6 ,11.5 ,20.9 
2004/4/4,16:45:00,22.3 ,33.4 ,17.4 ,11.6 ,20.3 
2004/4/4,17:00:00,22.5 ,33.7 ,17.2 ,11.6 ,21.9 
2004/4/4,17:15:00,22.4 ,34.0 ,17.2 ,11.7 ,26.0 
2004/4/4,17:30:00,22.3 ,33.7 ,17.1 ,11.8 ,24.0 
2004/4/4,17:45:00,22.4 ,33.5 ,17.1 ,11.9 ,24.8 
2004/4/4,18:00:00,22.4 ,34.0 ,17.1 ,12.0 ,24.1 
2004/4/4,18:15:00,22.5 ,33.5 ,17.1 ,12.1 ,25.5 
2004/4/4,18:30:00,22.6 ,33.7 ,17.1 ,12.2 ,24.5 
2004/4/4,18:45:00,22.6 ,33.5 ,17.1 ,12.3 ,23.3 
2004/4/4,19:00:00,22.6 ,34.5 ,17.1 ,12.4 ,22.6 
2004/4/4,19:15:00,22.5 ,34.4 ,17.1 ,12.5 ,21.8 
2004/4/4,19:30:00,22.5 ,34.4 ,17.3 ,12.6 ,21.2 
2004/4/4,19:45:00,22.5 ,34.4 ,17.1 ,12.7 ,20.8 
2004/4/4,20:00:00,22.4 ,33.7 ,17.5 ,12.8 ,20.6 
2004/4/4,20:15:00,22.3 ,34.7 ,18.0 ,11.8 ,20.3 
2004/4/4,20:30:00,22.4 ,34.3 ,18.2 ,11.9 ,20.1 
2004/4/4,20:45:00,22.4 ,35.5 ,18.7 ,11.9 ,19.9 
2004/4/4,21:00:00,22.3 ,35.8 ,18.7 ,12.0 ,19.8 
2004/4/4,21:15:00,22.3 ,35.4 ,18.7 ,12.1 ,19.8 
2004/4/4,21:30:00,22.3 ,35.0 ,18.7 ,12.2 ,19.7 
2004/4/4,21:45:00,22.3 ,34.9 ,18.5 ,12.3 ,19.6 
2004/4/4,22:00:00,21.6 ,35.9 ,18.5 ,12.4 ,19.4 
2004/4/4,22:15:00,21.1 ,37.0 ,18.3 ,12.5 ,19.0 
2004/4/4,22:30:00,20.8 ,37.6 ,18.2 ,12.6 ,18.8 
2004/4/4,22:45:00,20.7 ,38.6 ,18.2 ,12.7 ,18.7 
2004/4/4,23:00:00,20.5 ,39.0 ,18.1 ,12.8 ,18.6 
2004/4/4,23:15:00,20.6 ,38.8 ,18.0 ,12.8 ,18.5 
2004/4/4,23:30:00,20.3 ,39.4 ,18.0 ,12.9 ,18.3 
2004/4/4,23:45:00,20.5 ,38.7 ,17.9 ,13.0 ,18.2 
2004/4/5,0:00:00,20.4 ,38.7 ,17.8 ,13.1 ,18.2 
2004/4/5,0:15:00,20.4 ,38.6 ,17.8 ,13.2 ,18.1 
2004/4/5,0:30:00,20.2 ,38.5 ,17.7 ,13.3 ,18.0 
2004/4/5,0:45:00,20.2 ,38.4 ,17.6 ,13.3 ,17.9 
2004/4/5,1:00:00,20.1 ,38.2 ,17.6 ,13.4 ,17.8 
2004/4/5,1:15:00,20.0 ,38.1 ,17.5 ,13.5 ,17.7 
2004/4/5,1:30:00,19.9 ,38.0 ,17.4 ,13.5 ,17.6 
2004/4/5,1:45:00,20.0 ,37.7 ,17.4 ,13.6 ,17.6 
2004/4/5,2:00:00,19.8 ,37.7 ,17.3 ,13.7 ,17.5 
2004/4/5,2:15:00,19.8 ,37.4 ,17.3 ,13.8 ,17.4 
2004/4/5,2:30:00,19.8 ,37.2 ,17.2 ,13.8 ,17.4 
2004/4/5,2:45:00,19.7 ,37.2 ,17.1 ,13.9 ,17.3 
2004/4/5,3:00:00,19.7 ,36.9 ,17.1 ,13.9 ,17.2 
2004/4/5,3:15:00,19.7 ,36.8 ,17.0 ,14.0 ,17.2 
2004/4/5,3:30:00,19.7 ,36.8 ,16.9 ,14.1 ,17.2 
2004/4/5,3:45:00,19.6 ,36.8 ,16.9 ,14.1 ,17.1 
2004/4/5,4:00:00,19.5 ,36.6 ,16.8 ,14.2 ,17.0 
2004/4/5,4:15:00,19.5 ,36.5 ,16.7 ,14.3 ,16.9 
2004/4/5,4:30:00,19.5 ,36.3 ,16.7 ,14.3 ,16.9 
2004/4/5,4:45:00,19.5 ,36.3 ,16.6 ,14.4 ,16.9 
2004/4/5,5:00:00,19.4 ,36.2 ,16.6 ,14.4 ,16.8 
2004/4/5,5:15:00,19.4 ,36.1 ,16.5 ,14.5 ,16.8 
2004/4/5,5:30:00,19.4 ,35.9 ,16.5 ,14.5 ,16.7 
2004/4/5,5:45:00,19.4 ,35.7 ,16.4 ,14.6 ,16.7 
2004/4/5,6:00:00,19.3 ,35.8 ,16.4 ,14.6 ,16.6 
2004/4/5,6:15:00,19.4 ,35.5 ,16.3 ,14.7 ,16.7 
2004/4/5,6:30:00,19.3 ,35.7 ,16.3 ,11.4 ,16.7 
2004/4/5,6:45:00,19.4 ,36.2 ,16.2 ,11.3 ,16.7 
2004/4/5,7:00:00,19.4 ,36.3 ,16.2 ,11.4 ,16.8 
2004/4/5,7:15:00,19.5 ,36.2 ,16.2 ,11.4 ,16.9 
2004/4/5,7:30:00,19.4 ,36.6 ,16.4 ,11.6 ,17.0 
2004/4/5,7:45:00,19.5 ,35.9 ,16.8 ,11.8 ,17.1 
2004/4/5,8:00:00,19.5 ,36.2 ,17.1 ,11.8 ,17.3 
2004/4/5,8:15:00,19.5 ,36.2 ,17.3 ,11.9 ,17.5 
2004/4/5,8:30:00,19.5 ,35.9 ,17.4 ,12.0 ,17.7 
2004/4/5,8:45:00,19.6 ,35.8 ,17.5 ,12.1 ,17.9 
2004/4/5,9:00:00,19.6 ,35.7 ,17.6 ,12.2 ,18.0 
2004/4/5,9:15:00,19.7 ,35.3 ,17.7 ,12.2 ,18.2 
2004/4/5,9:30:00,19.7 ,35.2 ,17.9 ,12.3 ,18.3 
2004/4/5,9:45:00,19.8 ,34.9 ,18.0 ,12.4 ,18.5 
2004/4/5,10:00:00,19.8 ,34.6 ,18.1 ,12.5 ,18.5 
2004/4/5,10:15:00,19.8 ,34.5 ,18.1 ,12.5 ,18.6 
2004/4/5,10:30:00,19.9 ,34.3 ,18.2 ,12.6 ,18.6 
2004/4/5,10:45:00,20.0 ,34.2 ,18.3 ,12.7 ,18.7 
2004/4/5,11:00:00,19.9 ,34.4 ,18.5 ,12.8 ,18.8 
2004/4/5,11:15:00,19.8 ,34.7 ,18.6 ,12.8 ,18.9 
2004/4/5,11:30:00,20.1 ,34.1 ,18.6 ,12.9 ,19.0 
2004/4/5,11:45:00,20.1 ,34.0 ,18.7 ,13.0 ,19.1 
2004/4/5,12:00:00,20.1 ,34.0 ,18.7 ,13.1 ,19.1 
2004/4/5,12:15:00,20.2 ,34.0 ,18.7 ,13.2 ,19.2 
2004/4/5,12:30:00,20.2 ,34.0 ,18.8 ,13.2 ,19.3 
2004/4/5,12:45:00,19.9 ,34.5 ,18.8 ,13.3 ,19.3 
2004/4/5,13:00:00,20.0 ,34.2 ,18.7 ,13.4 ,19.3 
2004/4/5,13:15:00,20.2 ,33.9 ,18.7 ,13.4 ,19.3 
2004/4/5,13:30:00,20.0 ,34.3 ,18.7 ,13.5 ,19.3 
2004/4/5,13:45:00,20.2 ,33.5 ,18.7 ,13.6 ,19.4 
2004/4/5,14:00:00,20.0 ,34.2 ,18.6 ,13.7 ,19.4 
2004/4/5,14:15:00,20.0 ,33.8 ,18.6 ,13.7 ,19.4 
2004/4/5,14:30:00,20.0 ,33.8 ,18.6 ,13.8 ,19.4 
2004/4/5,14:45:00,19.9 ,33.7 ,18.5 ,13.9 ,19.4 
2004/4/5,15:00:00,20.2 ,33.2 ,18.5 ,13.9 ,19.4 
2004/4/5,15:15:00,20.3 ,33.0 ,18.4 ,14.0 ,19.4 
2004/4/5,15:30:00,19.9 ,33.6 ,18.4 ,14.1 ,19.4 
2004/4/5,15:45:00,19.9 ,33.5 ,18.3 ,14.1 ,19.4 
2004/4/5,16:00:00,19.8 ,33.7 ,18.3 ,14.2 ,19.3 
2004/4/5,16:15:00,19.9 ,33.0 ,18.3 ,14.3 ,19.3 
2004/4/5,16:30:00,20.0 ,32.8 ,18.2 ,14.3 ,19.3 
2004/4/5,16:45:00,20.0 ,33.0 ,18.2 ,14.4 ,19.2 
2004/4/5,17:00:00,19.9 ,33.2 ,18.2 ,14.4 ,19.2 
2004/4/5,17:15:00,19.8 ,33.6 ,18.1 ,14.5 ,19.1 
2004/4/5,17:30:00,19.8 ,33.3 ,18.1 ,14.5 ,19.1 
2004/4/5,17:45:00,19.8 ,33.4 ,18.1 ,14.6 ,19.0 
2004/4/5,18:00:00,19.9 ,32.9 ,18.0 ,14.7 ,19.0 
2004/4/5,18:15:00,20.0 ,32.8 ,18.0 ,14.7 ,18.9 
2004/4/5,18:30:00,20.1 ,32.6 ,18.0 ,14.8 ,18.9 
2004/4/5,18:45:00,20.0 ,32.6 ,17.9 ,14.8 ,18.8 
2004/4/5,19:00:00,19.9 ,32.9 ,17.9 ,14.9 ,18.8 
2004/4/5,19:15:00,20.0 ,32.7 ,17.9 ,14.9 ,18.7 
2004/4/5,19:30:00,19.7 ,33.5 ,17.8 ,15.0 ,18.6 
2004/4/5,19:45:00,19.9 ,32.6 ,17.8 ,15.0 ,18.6 
2004/4/5,20:00:00,20.0 ,32.3 ,17.7 ,15.1 ,18.6 
2004/4/5,20:15:00,20.0 ,32.2 ,17.7 ,15.2 ,18.5 
2004/4/5,20:30:00,20.1 ,32.3 ,17.7 ,15.2 ,18.5 
2004/4/5,20:45:00,20.0 ,32.9 ,17.6 ,15.3 ,18.5 
2004/4/5,21:00:00,19.9 ,33.4 ,17.6 ,15.3 ,18.5 
2004/4/5,21:15:00,20.0 ,33.0 ,17.6 ,15.4 ,18.4 
2004/4/5,21:30:00,20.0 ,33.0 ,17.6 ,15.5 ,18.4 
2004/4/5,21:45:00,20.0 ,33.0 ,17.5 ,15.5 ,18.4 
2004/4/5,22:00:00,20.0 ,33.1 ,17.5 ,15.6 ,18.3 
2004/4/5,22:15:00,20.1 ,33.0 ,17.5 ,12.5 ,18.3 
2004/4/5,22:30:00,20.1 ,33.0 ,17.4 ,12.5 ,18.3 
2004/4/5,22:45:00,20.1 ,32.9 ,17.4 ,12.6 ,18.3 
2004/4/5,23:00:00,20.1 ,32.9 ,17.3 ,12.7 ,18.2 
2004/4/5,23:15:00,20.1 ,32.8 ,17.3 ,12.7 ,18.2 
2004/4/5,23:30:00,20.1 ,32.8 ,17.2 ,12.8 ,18.2 
2004/4/5,23:45:00,20.0 ,32.8 ,17.2 ,12.9 ,18.1 
2004/4/6,0:00:00,19.9 ,33.0 ,17.1 ,13.0 ,18.1 
2004/4/6,0:15:00,20.0 ,32.8 ,17.1 ,13.1 ,18.0 
2004/4/6,0:30:00,20.0 ,32.7 ,17.0 ,13.1 ,18.0 
2004/4/6,0:45:00,19.9 ,33.2 ,17.0 ,13.2 ,18.0 
2004/4/6,1:00:00,19.9 ,33.3 ,17.1 ,13.3 ,18.0 
2004/4/6,1:15:00,19.8 ,33.5 ,17.1 ,13.4 ,17.9 
2004/4/6,1:30:00,19.8 ,33.5 ,17.1 ,13.4 ,17.9 
2004/4/6,1:45:00,19.8 ,33.6 ,17.1 ,13.5 ,17.8 
2004/4/6,2:00:00,19.8 ,33.0 ,17.1 ,13.6 ,17.8 
2004/4/6,2:15:00,19.7 ,32.9 ,17.1 ,13.6 ,17.7 
2004/4/6,2:30:00,19.7 ,32.9 ,17.1 ,13.7 ,17.7 
2004/4/6,2:45:00,19.6 ,32.9 ,17.0 ,13.8 ,17.6 
2004/4/6,3:00:00,19.5 ,33.2 ,17.0 ,13.8 ,17.5 